PHX70 CYUL-VHHH

Flight info

Callsign PHX70
Flight time N/A
Altitude 33000
Route YUL DCT 50N073W 55N073W 60N073W 65N074W 70N078W 75N081W/N0494F350 80N088W 85N110W DCT NEUTR/N0496F360 DCT ULLAN/K0919F360 DCT 85N148E DCT IRMAK M171 SALAK/K0922F370 T656 NAPED/K0895F390 T656 GABAL/K0893F380 N615 SULOK/K0895S1160 Y327 POLHO G218 TMR/K0893S1190 B458 DADGA/K0891S1220 W37 GUSIV/K0896S1190 W37 PEXID/K0895S1220 W37 OMBEB/K0893S1190 R473 NNX/K0893S1220 R473 WYN W18 NLG W23 ZUH R473 SIERA
Aircraft A359/H-SDE2E3GHIJ3J4J5LM1ORWXY/LB1D1

Departure

Time 2026-05-07 01:09
Airport Montreal / Pierre Elliott Trudeau International Airport (CYUL)

Arrival

Time N/A
Airport Hong Kong International Airport (VHHH)
Time Latitude Longitude Altitude Speed Heading
2026-05-07 00:48 45.45990 -73.75633 111 ft 0 kts 177°
2026-05-07 00:59 45.46009 -73.75625 109 ft 1 kts 223°
2026-05-07 00:59 45.46019 -73.75609 110 ft 3 kts 246°
2026-05-07 00:59 45.46025 -73.75580 109 ft 3 kts 259°
2026-05-07 01:00 45.46027 -73.75559 109 ft 1 kts 263°
2026-05-07 01:00 45.46029 -73.75546 110 ft 1 kts 263°
2026-05-07 01:00 45.46030 -73.75534 110 ft 1 kts 263°
2026-05-07 01:00 45.46030 -73.75532 110 ft 0 kts 263°
2026-05-07 01:03 45.46024 -73.75580 112 ft 10 kts 259°
2026-05-07 01:04 45.46057 -73.75680 110 ft 8 kts 317°
2026-05-07 01:04 45.46121 -73.75679 111 ft 12 kts 58°
2026-05-07 01:04 45.46139 -73.75520 110 ft 21 kts 83°
2026-05-07 01:04 45.46150 -73.75288 115 ft 25 kts 94°
2026-05-07 01:05 45.46146 -73.75009 115 ft 31 kts 84°
2026-05-07 01:05 45.46157 -73.74677 113 ft 32 kts 89°
2026-05-07 01:05 45.46128 -73.74404 111 ft 20 kts 85°
2026-05-07 01:05 45.46138 -73.74172 114 ft 27 kts 87°
2026-05-07 01:06 45.46242 -73.73927 111 ft 33 kts 40°
2026-05-07 01:06 45.46421 -73.73702 115 ft 30 kts 43°
2026-05-07 01:06 45.46589 -73.73479 116 ft 36 kts 43°
2026-05-07 01:06 45.46780 -73.73215 117 ft 41 kts 44°
2026-05-07 01:07 45.47002 -73.72928 122 ft 44 kts 43°
2026-05-07 01:07 45.47239 -73.72621 124 ft 48 kts 42°
2026-05-07 01:07 45.47495 -73.72283 123 ft 51 kts 44°
2026-05-07 01:07 45.47692 -73.72025 132 ft 15 kts 43°
2026-05-07 01:08 45.47788 -73.71900 134 ft 23 kts 44°
2026-05-07 01:08 45.47803 -73.71700 127 ft 25 kts 143°
2026-05-07 01:08 45.47630 -73.71698 129 ft 27 kts 217°
2026-05-07 01:08 45.47416 -73.71969 123 ft 70 kts 222°
2026-05-07 01:09 45.46900 -73.72660 120 ft 133 kts 223°
2026-05-07 01:09 45.46073 -73.73743 132 ft 186 kts 222°
2026-05-07 01:09 45.45091 -73.75020 759 ft 187 kts 223°
2026-05-07 01:09 45.44170 -73.76258 1651 ft 184 kts 225°
2026-05-07 01:10 45.43190 -73.77583 1991 ft 204 kts 226°
2026-05-07 01:10 45.42123 -73.79035 2409 ft 222 kts 226°
2026-05-07 01:10 45.40947 -73.80631 2723 ft 243 kts 226°
2026-05-07 01:10 45.39713 -73.82289 3309 ft 250 kts 226°
2026-05-07 01:11 45.38442 -73.83989 3866 ft 252 kts 225°
2026-05-07 01:11 45.37152 -73.85713 4288 ft 257 kts 225°
2026-05-07 01:11 45.35844 -73.87463 4781 ft 259 kts 226°
2026-05-07 01:11 45.34812 -73.89538 5230 ft 258 kts 251°
2026-05-07 01:12 45.34566 -73.92019 5729 ft 256 kts 277°
2026-05-07 01:12 45.35165 -73.94384 6235 ft 258 kts 303°
2026-05-07 01:12 45.36356 -73.96302 6683 ft 260 kts 314°
2026-05-07 01:12 45.37699 -73.98057 6851 ft 263 kts 316°
2026-05-07 01:13 45.39072 -73.99793 6864 ft 263 kts 316°
2026-05-07 01:13 45.40458 -74.01494 6866 ft 264 kts 320°
2026-05-07 01:13 45.42077 -74.02784 7009 ft 269 kts 338°
2026-05-07 01:13 45.43939 -74.03244 7449 ft 276 kts 354°
2026-05-07 01:14 45.45878 -74.03196 7998 ft 280 kts
2026-05-07 01:14 45.47833 -74.02890 8500 ft 286 kts
2026-05-07 01:14 45.49811 -74.02443 9017 ft 290 kts
2026-05-07 01:14 45.51813 -74.01933 9537 ft 294 kts
2026-05-07 01:15 45.53843 -74.01413 9978 ft 299 kts
2026-05-07 01:15 45.55917 -74.00909 10215 ft 313 kts
2026-05-07 01:15 45.58114 -74.00412 10423 ft 327 kts
2026-05-07 01:15 45.60449 -73.99912 10610 ft 341 kts
2026-05-07 01:16 45.62812 -73.99419 10799 ft 355 kts
2026-05-07 01:16 45.65303 -73.98904 10986 ft 367 kts
2026-05-07 01:16 45.67873 -73.98372 11175 ft 379 kts
2026-05-07 01:16 45.70510 -73.97823 11506 ft 386 kts
2026-05-07 01:17 45.73182 -73.97260 11931 ft 389 kts
2026-05-07 01:17 45.74959 -73.96885 12214 ft 392 kts
2026-05-07 01:17 45.77673 -73.96311 12634 ft 395 kts
2026-05-07 01:17 45.80406 -73.95732 13062 ft 399 kts
2026-05-07 01:18 45.83161 -73.95151 13461 ft 402 kts
2026-05-07 01:18 45.85946 -73.94564 13839 ft 406 kts
2026-05-07 01:18 45.88753 -73.93972 14201 ft 409 kts
2026-05-07 01:18 45.91593 -73.93373 14540 ft 412 kts
2026-05-07 01:19 45.94405 -73.92780 14894 ft 415 kts
2026-05-07 01:19 45.97283 -73.92171 15252 ft 418 kts
2026-05-07 01:19 46.00179 -73.91558 15607 ft 422 kts
2026-05-07 01:19 46.03090 -73.90941 15957 ft 425 kts
2026-05-07 01:20 46.06030 -73.90318 16283 ft 429 kts
2026-05-07 01:20 46.08993 -73.89688 16649 ft 432 kts
2026-05-07 01:20 46.11976 -73.89053 16989 ft 435 kts